Retour au catalogue

FREGAT R/B

ActifPO
NORAD 54154·ROCKET BODY·🇷🇺 Russia

Lancé Oct 22, 2022 depuis Vostochny Cosmodrome

Loading…

Prochains Passages (prochaines 24 heures)

TLE

FraisSource: Space-Track

Époque: Sep 13, 2026, 03:30 UTC

1 54154U 22139E   26256.14598536  .00000026  00000-0  00000+0 0  9995
2 54154  89.9421  96.5799 0004575  25.2497 334.8455  4.97564027 68278

Suivez FREGAT R/B en temps réel avec AllMySat

Download on the App Store